User: anonymous   Login
Location: Unspecified
(0.0000°N, 0.0000°E)
Time: 07:09:53
(UTC+00:00)
Language:

USA 254 - Orbit

View from above orbital plane
View from above orbital plane
View from above satellite
View from above satellite

Ground track
Ground track

The orbit data is extracted from the following two-line orbital elements,

1 40100U 14043B   18136.88922947 0.00000000  00000-0  00000-0 0    08
2 40100   0.0980  93.8798 0001460  34.3784 325.6216  1.00000679    06
Epoch (UTC): 16 May 2018 21:20:29
Eccentricity: 0.0001460
inclination: 0.0980°
perigee height: 35856 km
apogee height: 35868 km
right ascension of ascending node: 93.8798°
argument of perigee: 34.3784°
revolutions per day: 1.00000679
mean anomaly at epoch: 325.6216°
orbit number at epoch: 0

The dashed part of the orbit path shows where the satellite is in the earth's shadow,  

DLR